Flag for Russia Weather past 2 weeks in Kazan, Russia

Now
23 °F

Passing clouds.


Feels Like: 14 °F
Forecast: 22 / 33 °F
Wind: 8 mph from Southeast

Location: Kazan'

Current Time: Dec 19, 2014 at 9:29:14 PM

Latest Report: Dec 19, 2014 at 9:00 PM


Visibility: N/A

Pressure: 29.86 "Hg

Humidity: 93%

Dew point: 21 °F

Location of KazanLocation

Historic Weather in Kazan — Graph

°F

Kazan temperature yesterday

Maximum temperature yesterday: 27 °F (at 10:00 AM)
Minimum temperature yesterday: 23 °F (at 7:30 AM)
Average temperature yesterday: 25 °F

Past Weeks' High & Low Weather Summary

 TemperatureHumidityPressure
High36 °F (Dec 13, 2:30 AM)100% (Dec 9, 9:30 PM)30.57 "Hg (Dec 9, 9:30 PM)
Low-9 °F (Dec 6, 8:00 AM)67% (Dec 8, 7:00 AM)29.62 "Hg (Dec 4, 8:00 PM)
Average23 °F91%30.21 "Hg
* Reported Dec 4 8:00 PM — Dec 19 8:30 PM, Kazan, Weather by CustomWeather, © 2014

Note: Actual official high and low records may vary slightly from our data, if they occured in-between our weather recording intervals... More about our weather records

Advertising

Kazan weather history for previous 24 hours

 ConditionsComfort  
Time TempWeatherWind HumidityBarometerVisibility
8:30 PM
Dec 19
23 °FPassing clouds.8 mph93%29.86 "HgN/A
8:00 PM21 °FPartly cloudy.8 mph100%29.86 "HgN/A
7:30 PM21 °FPartly cloudy.8 mph100%29.86 "HgN/A
7:00 PM21 °FPartly cloudy.8 mph93%29.89 "HgN/A
6:30 PM19 °FIce fog.8 mph100%29.89 "Hg3 mi
6:00 PM18 °FIce fog.8 mph100%29.89 "Hg3 mi
5:30 PM19 °FClear.8 mph100%29.89 "Hg10 mi
5:00 PM23 °FPassing clouds.8 mph93%29.89 "HgN/A
4:30 PM23 °FPassing clouds.6 mph93%29.89 "HgN/A
4:00 PM21 °FPartly sunny.6 mph100%29.89 "HgN/A
3:30 PM21 °FPartly sunny.8 mph93%29.89 "HgN/A
3:00 PM21 °FPartly sunny.8 mph93%29.89 "HgN/A
2:30 PM21 °FPartly sunny.8 mph100%29.89 "HgN/A
2:00 PM23 °FPartly sunny.6 mph93%29.89 "HgN/A
1:30 PM23 °FPartly sunny.6 mph93%29.89 "HgN/A
1:00 PM23 °FPartly sunny.6 mph93%29.89 "HgN/A
12:00 PM23 °FPartly sunny.6 mph100%29.89 "HgN/A
11:30 AM23 °FLow clouds.8 mph100%29.89 "HgN/A
11:00 AM23 °FLow clouds.6 mph100%29.89 "HgN/A
10:30 AM23 °FPartly sunny.8 mph100%29.89 "HgN/A
10:00 AM23 °FOvercast.10 mph100%29.89 "HgN/A
9:30 AM23 °FLow clouds.10 mph100%29.92 "HgN/A
9:00 AM23 °FLow clouds.8 mph100%29.92 "HgN/A
8:30 AM23 °FLow clouds.8 mph100%29.92 "HgN/A
8:00 AM23 °FLow clouds.8 mph100%29.92 "HgN/A
7:30 AM23 °FLow clouds.8 mph100%29.92 "HgN/A
6:30 AM23 °FLow clouds.8 mph100%29.92 "HgN/A
6:00 AM23 °FLow clouds.10 mph100%29.92 "HgN/A
5:30 AM23 °FLight snow. Low clouds.10 mph100%29.92 "HgN/A
5:00 AM23 °FLight snow. Low clouds.8 mph100%29.92 "HgN/A
4:30 AM23 °FLight snow. Low clouds.10 mph100%29.92 "HgN/A
4:00 AM23 °FLight snow. Low clouds.10 mph100%29.92 "HgN/A
3:30 AM23 °FLight snow. Ice fog.10 mph100%29.92 "Hg3 mi
3:00 AM23 °FLight snow. Low clouds.13 mph100%29.92 "Hg3 mi
2:30 AM23 °FLight snow. Low clouds.10 mph100%29.92 "Hg3 mi
2:00 AM23 °FLight snow. Low clouds.10 mph100%29.95 "Hg3 mi
1:30 AM23 °FLight snow. Overcast.13 mph100%29.95 "Hg3 mi
1:00 AM23 °FOvercast.13 mph93%29.95 "HgN/A
12:30 AM23 °FOvercast.13 mph93%29.92 "HgN/A
12:00 AM23 °FOvercast.13 mph100%29.92 "HgN/A
11:30 PM
Dec 18
23 °FOvercast.13 mph100%29.95 "HgN/A
11:00 PM23 °FOvercast.13 mph100%29.95 "HgN/A
10:30 PM25 °FOvercast.15 mph93%29.95 "HgN/A
10:00 PM25 °FOvercast.13 mph93%29.95 "HgN/A
9:30 PM25 °FOvercast.13 mph93%29.92 "HgN/A
9:00 PM25 °FOvercast.13 mph93%29.95 "HgN/A
Weather by CustomWeather, © 2014

See weather overviewHow to use our weather pages